Vorticity
2 6 12 16 17 13 8 3 2 2 5 9 14 17 18 16 14 11 9 6 5 5 6 7 8 8 8 8 8 7 7 8 9 10 11 11 11 11 11 10 10 9 8 8 8 8 7 7 7 8 8 8 9 9 10 10 11 10 10 10 10 9 9 8 8 8 8 8 8
9 13 15 16 13 10 6 4 6 8 13 17 18 18 17 15 12 9 6 5 5 6 6 8 8 8 8 8 7 8 8 9 10 11 11 12 12 11 10 10 9 9 9 8 8 7 7 7 7 8 8 9 10 10 10 10 10 10 10 9 9 8 8 7 8 8 8 8 8
13 14 13 11 9 8 7 8 11 15 18 20 18 17 14 11 8 6 5 5 6 7 7 8 8 8 7 7 8 8 9 10 10 11 12 12 11 11 10 10 9 9 9 8 7 7 7 7 8 9 9 10 10 10 10 10 10 10 9 9 8 8 7 7 8 8 8 9 9
13 12 10 9 9 10 11 14 17 19 20 18 16 13 10 7 6 5 6 6 7 8 8 8 8 7 7 7 8 9 10 11 11 12 12 12 11 11 10 10 9 9 8 7 7 7 7 8 9 10 10 10 10 10 10 10 9 9 8 8 8 8 8 8 9 9 9 10 10
12 11 10 11 12 14 16 19 20 19 17 14 11 8 7 6 6 6 7 7 8 9 8 8 7 7 7 8 9 10 11 12 12 12 12 11 11 11 10 10 9 8 7 7 7 7 8 10 10 10 10 10 10 10 9 9 8 8 8 8 8 8 9 9 10 10 10 10 10
13 13 14 16 17 18 19 19 17 15 12 9 7 6 6 6 6 7 8 8 8 8 8 7 7 7 8 9 11 11 12 12 12 12 12 11 11 10 10 9 8 7 7 7 8 9 10 10 10 10 10 9 9 9 9 8 8 8 8 9 9 10 10 10 10 10 10 10 9
16 17 18 18 18 17 16 14 11 9 7 6 6 6 6 7 7 8 8 8 8 8 7 7 7 8 9 11 12 13 13 12 12 12 12 11 10 10 9 8 7 7 7 8 9 10 10 10 10 10 9 9 8 8 8 8 8 8 9 10 10 10 10 10 10 10 9 9 8
16 16 15 14 13 11 10 8 7 6 6 6 7 7 7 8 8 8 8 8 8 7 7 7 9 10 11 12 13 13 13 12 12 11 11 10 10 9 8 8 8 8 9 10 10 10 10 10 9 9 8 8 8 8 8 9 9 10 10 10 10 10 10 10 9 9 8 7 7
11 11 10 8 7 7 6 6 6 6 6 7 7 7 8 8 8 8 8 7 7 7 8 9 10 11 13 13 13 13 13 12 11 11 10 10 9 8 8 8 9 9 10 11 10 10 9 8 8 8 8 8 8 9 9 10 10 10 10 10 10 9 9 8 8 7 7 7 6
6 6 6 6 6 6 6 6 7 7 7 7 8 8 8 8 8 8 7 7 7 8 9 10 11 13 14 14 13 13 12 11 11 10 9 9 8 8 9 9 10 10 10 10 9 9 8 8 8 8 9 9 9 10 10 10 10 10 10 9 9 8 8 7 7 7 6 6 7
5 5 6 6 6 6 7 7 7 7 8 8 8 8 8 8 8 7 7 7 8 10 11 12 13 14 14 14 13 12 11 10 10 9 9 9 9 9 9 10 10 10 9 9 8 8 8 8 9 9 10 10 10 10 10 10 10 9 9 8 7 7 6 6 6 6 6 6 7
6 6 6 6 7 7 7 7 7 8 8 8 8 8 8 8 8 8 8 8 10 11 12 13 14 14 14 13 12 11 10 10 9 9 9 9 9 9 9 9 9 9 8 8 8 8 9 9 10 10 11 11 11 11 10 10 9 8 7 7 6 6 6 6 6 6 6 7 7
6 6 7 7 7 7 7 8 8 8 8 8 8 8 8 8 8 8 9 10 11 12 13 14 14 14 13 12 11 10 9 9 9 9 9 9 9 9 9 9 9 9 9 9 9 9 10 10 11 11 11 11 11 10 9 8 7 7 6 6 6 6 6 6 6 6 6 7 7
6 7 7 7 7 8 8 8 8 8 8 8 8 8 8 8 9 9 10 12 13 13 14 14 14 13 12 11 10 9 9 8 8 9 9 9 9 9 9 9 9 9 9 10 10 11 11 11 12 11 11 10 9 9 8 7 6 6 6 6 6 6 6 6 6 6 6 6 6
7 7 7 7 8 8 8 8 8 8 8 8 8 8 8 9 10 11 12 13 14 14 14 13 12 11 10 9 9 9 8 8 8 9 9 9 10 10 10 9 9 10 10 10 11 11 12 12 11 10 10 9 8 7 7 6 6 6 6 6 6 6 6 6 6 6 6 6 6
7 7 8 8 8 8 8 8 8 8 8 8 8 9 10 10 11 13 13 14 14 14 13 12 11 10 9 9 8 8 8 8 9 9 10 10 10 10 10 10 10 10 10 11 11 12 11 11 10 9 8 7 7 6 6 6 6 6 6 6 6 6 6 6 6 6 6 6 6
8 8 8 8 8 8 8 8 8 8 8 8 9 10 11 12 13 14 14 14 13 12 11 10 9 9 8 8 8 8 9 9 10 10 10 10 10 10 10 10 10 11 11 11 11 11 10 9 9 8 7 6 6 6 6 6 6 6 6 6 6 6 6 6 6 6 6 6 7
8 8 8 8 8 8 8 8 8 8 9 9 10 11 12 13 13 14 14 13 12 11 10 9 8 8 8 8 9 9 10 10 11 11 11 10 10 10 10 10 11 11 11 11 10 10 9 8 7 7 6 6 6 6 6 6 6 6 5 5 5 5 6 6 6 6 6 7 7
8 8 8 8 8 8 8 8 8 9 10 11 12 13 13 14 13 13 12 12 10 9 8 8 8 8 9 9 9 10 11 11 11 10 10 10 10 10 10 11 11 11 11 10 9 9 8 7 6 6 6 6 5 5 5 5 5 5 5 5 5 5 6 6 6 6 7 7 7
8 8 8 8 8 8 8 8 9 10 11 12 13 13 13 13 13 12 11 10 9 8 8 8 8 9 10 10 11 11 11 11 10 10 10 10 10 10 10 11 11 10 10 9 8 8 7 6 6 6 5 5 5 5 5 5 5 5 5 5 6 6 6 6 6 7 7 7 7
8 8 8 7 8 8 9 9 10 11 12 13 13 13 13 12 11 10 10 9 8 8 8 9 9 10 11 11 11 11 11 10 10 10 10 10 10 10 11 11 10 10 9 8 7 7 6 6 5 5 5 5 5 5 5 5 5 5 5 5 6 6 6 6 6 7 7 7 8
8 7 7 7 8 9 10 11 12 12 13 13 13 12 12 11 10 9 9 8 8 8 9 10 11 11 11 11 11 10 10 10 10 10 10 10 11 11 11 11 10 9 8 7 6 6 5 5 5 5 5 5 5 5 5 5 5 5 5 5 5 6 6 6 6 7 7 8 8
7 7 8 8 9 10 11 12 12 12 12 12 12 11 11 10 9 8 8 8 9 10 10 11 11 11 11 10 10 10 9 9 10 10 11 11 11 11 11 10 9 8 7 6 6 5 5 5 5 5 5 5 5 5 5 5 5 5 5 5 5 6 6 6 6 7 7 8 8
8 8 8 9 10 11 12 12 12 12 12 12 11 10 10 9 9 8 8 9 10 11 11 12 11 11 10 10 9 9 9 9 10 11 11 12 11 11 10 8 7 7 6 5 5 5 5 4 4 5 5 5 5 5 5 5 5 5 5 5 5 6 6 6 7 7 8 8 9
8 9 9 10 11 11 12 12 12 12 11 11 10 10 9 9 9 9 9 10 11 12 12 11 11 10 9 9 9 9 10 10 11 11 11 11 11 9 8 7 6 5 5 4 4 4 5 5 5 5 5 5 5 5 5 5 5 5 5 5 6 6 6 7 7 8 8 8 9
9 10 10 11 11 11 12 12 12 11 11 10 10 9 9 9 9 10 10 11 12 12 11 10 10 9 9 9 9 10 11 12 12 12 11 10 9 8 7 6 5 5 4 4 4 4 5 5 5 5 5 5 5 5 5 5 5 5 6 6 6 6 7 7 7 8 8 8 8
10 10 11 11 11 12 12 11 11 10 10 10 9 9 9 9 10 11 11 12 11 11 10 9 9 9 9 9 10 11 12 12 12 11 10 9 7 6 6 5 4 4 4 4 4 5 5 5 5 5 5 5 5 5 5 5 5 6 6 6 7 7 7 8 8 8 8 8 8
10 11 11 11 12 12 11 11 10 10 10 9 9 9 10 10 11 11 12 11 10 9 9 9 9 9 10 11 12 12 12 11 11 10 8 7 6 6 5 4 4 4 4 4 5 5 5 5 5 5 6 6 6 6 5 5 5 6 6 7 7 7 8 8 8 8 8 7 7
11 11 11 12 12 11 11 10 10 10 9 9 10 10 10 11 11 11 11 10 9 9 9 9 9 10 12 13 13 12 11 10 9 8 7 6 5 5 4 4 4 4 4 5 5 5 5 5 6 6 6 6 6 6 6 6 6 6 6 7 7 8 8 8 8 8 7 7 6
11 11 11 11 11 10 10 10 10 9 9 10 10 10 11 11 11 10 10 9 9 9 9 9 10 12 13 13 12 11 10 9 8 7 6 5 4 4 4 4 4 4 5 5 5 5 6 6 6 6 6 6 6 6 6 6 6 6 7 7 8 8 8 8 8 7 7 7 6
11 11 11 11 10 10 10 10 9 9 10 10 10 11 11 11 10 10 9 9 9 9 10 11 12 13 13 12 11 10 8 7 6 5 5 4 4 4 4 4 4 5 5 5 5 6 6 6 6 6 6 6 6 6 6 6 6 7 7 7 8 8 8 8 7 7 7 6 6
11 11 11 10 10 10 9 9 10 10 10 10 11 11 11 10 9 9 9 8 9 10 11 13 13 13 12 10 9 8 7 6 5 4 4 4 4 4 4 4 5 5 5 5 6 6 6 6 6 6 6 5 6 6 6 6 7 7 7 8 8 8 7 7 7 7 6 6 6
11 11 10 10 9 9 9 10 10 10 10 11 11 10 10 9 9 8 8 9 10 11 12 13 12 11 10 9 7 6 5 5 4 4 4 4 4 4 4 5 5 5 5 6 6 6 6 6 5 5 5 5 6 6 6 7 7 7 7 8 8 7 7 7 7 6 6 6 6
10 10 10 10 9 9 10 10 10 10 10 10 10 10 9 9 8 9 9 10 11 12 12 12 11 10 9 7 6 5 4 4 4 4 4 4 4 5 5 5 5 5 6 6 6 5 5 5 5 5 5 5 6 6 6 7 7 7 8 8 7 7 7 7 6 6 6 5 5
10 10 9 9 9 10 10 10 10 10 10 10 10 9 9 9 9 9 10 11 12 12 12 11 10 8 7 6 5 4 4 4 4 4 4 4 5 5 5 5 5 5 5 5 5 5 5 5 5 5 5 6 6 6 7 7 7 8 8 7 7 7 7 6 6 6 6 5 6
10 9 9 9 10 10 10 10 10 10 10 9 9 9 9 9 9 10 10 11 12 12 11 10 8 7 6 5 4 4 4 4 4 4 4 5 5 5 5 5 5 5 6 6 5 5 5 5 5 5 5 6 6 7 7 7 8 7 7 7 7 6 6 6 6 6 6 6 6
10 9 9 9 10 10 10 10 10 10 9 9 9 9 9 9 10 11 11 12 12 11 10 8 7 5 4 4 4 4 4 4 4 4 5 5 5 5 5 5 6 6 6 6 6 6 5 5 5 5 6 6 6 7 7 8 8 7 7 7 6 6 6 6 5 6 6 7 8
10 10 10 10 10 10 10 10 9 9 9 9 9 9 9 10 10 11 12 12 11 10 8 7 5 5 4 3 3 4 4 4 5 5 5 5 6 6 5 5 6 6 6 6 6 6 5 5 5 6 6 6 7 7 7 7 7 7 7 6 6 6 5 5 6 6 7 8 9
10 10 10 10 10 10 9 9 9 9 9 9 9 9 10 11 12 12 12 12 10 8 7 5 4 4 4 3 4 4 4 5 5 5 5 5 6 6 6 6 6 6 6 6 6 5 5 5 5 6 6 7 7 7 7 7 7 7 6 6 6 5 5 6 7 7 8 9 9
10 10 10 10 10 9 9 9 9 9 9 9 9 10 11 12 12 12 12 11 9 7 6 4 4 4 3 4 4 4 4 5 5 5 5 5 5 6 6 6 6 6 6 6 5 5 5 5 6 6 7 7 7 7 7 7 7 6 6 6 5 6 6 7 8 9 9 9 8
10 10 10 10 9 9 9 9 9 9 9 10 10 11 12 12 12 12 11 9 7 6 5 4 4 3 4 4 4 4 5 5 5 6 6 5 6 6 6 6 6 6 6 5 5 5 5 5 6 7 7 7 8 7 7 7 6 6 6 6 6 6 7 8 9 9 9 8 6
Height
5757 5758 5758 5758 5758 5759 5759 5759 5759 5759 5760 5760 5760 5761 5761 5762 5762 5762 5762 5762 5763 5763 5763 5762 5762 5762 5761 5761 5760 5759 5758 5757 5757 5756 5755 5754 5753 5752 5751 5750 5749 5748 5747 5746 5745 5744 5743 5742 5742 5741 5740 5740 5739 5738 5737 5737 5736 5735 5734 5733 5732 5731 5730 5729 5728 5727 5726 5724 5723
5755 5755 5755 5755 5756 5756 5757 5757 5757 5757 5757 5757 5758 5758 5759 5759 5760 5760 5760 5760 5760 5760 5760 5760 5760 5760 5759 5758 5757 5757 5756 5755 5754 5753 5752 5751 5750 5750 5749 5747 5747 5746 5745 5744 5743 5742 5741 5740 5740 5739 5738 5738 5737 5736 5735 5734 5734 5733 5732 5731 5730 5729 5728 5727 5726 5724 5723 5722 5720
5752 5752 5752 5753 5753 5753 5754 5754 5754 5754 5755 5755 5756 5756 5757 5757 5757 5757 5757 5758 5758 5758 5758 5758 5758 5757 5757 5756 5755 5754 5753 5752 5752 5751 5750 5749 5748 5747 5747 5746 5745 5743 5742 5742 5741 5740 5739 5738 5738 5737 5737 5736 5735 5734 5733 5732 5732 5731 5730 5728 5727 5726 5725 5724 5723 5722 5720 5719 5718
5749 5750 5750 5750 5751 5751 5751 5752 5752 5752 5753 5753 5754 5754 5754 5755 5755 5755 5755 5755 5756 5756 5756 5756 5755 5755 5754 5754 5753 5752 5751 5750 5749 5748 5747 5747 5746 5745 5744 5743 5742 5742 5741 5740 5739 5738 5737 5737 5736 5735 5735 5734 5733 5732 5731 5730 5729 5728 5727 5726 5725 5724 5723 5722 5720 5719 5718 5717 5716
5747 5747 5747 5748 5748 5748 5749 5749 5750 5750 5751 5751 5752 5752 5752 5752 5752 5752 5753 5753 5753 5753 5753 5753 5753 5752 5752 5751 5750 5749 5748 5748 5747 5746 5745 5745 5744 5743 5742 5741 5740 5739 5738 5737 5737 5736 5735 5735 5734 5733 5733 5732 5731 5730 5729 5728 5727 5726 5725 5724 5723 5722 5721 5720 5718 5717 5716 5715 5714
5745 5745 5745 5745 5746 5746 5747 5747 5748 5748 5749 5749 5749 5749 5750 5750 5750 5750 5751 5751 5751 5751 5751 5751 5751 5750 5750 5749 5748 5747 5746 5745 5745 5744 5743 5742 5742 5741 5740 5739 5738 5737 5737 5736 5735 5734 5734 5733 5732 5732 5731 5730 5729 5728 5727 5726 5725 5724 5723 5722 5721 5720 5719 5717 5717 5715 5714 5713 5712
5742 5742 5743 5743 5743 5744 5745 5745 5746 5746 5746 5747 5747 5747 5747 5747 5748 5748 5748 5749 5749 5749 5749 5748 5748 5748 5747 5747 5746 5745 5744 5743 5742 5742 5741 5741 5740 5739 5738 5737 5736 5735 5734 5734 5733 5732 5732 5731 5731 5730 5728 5727 5727 5726 5725 5724 5723 5722 5721 5720 5719 5718 5717 5716 5714 5713 5712 5711 5709
5740 5740 5740 5741 5741 5742 5742 5743 5743 5744 5744 5744 5745 5745 5745 5746 5746 5746 5746 5746 5746 5746 5746 5746 5746 5745 5745 5744 5743 5743 5742 5741 5740 5740 5739 5738 5737 5737 5736 5735 5734 5733 5732 5732 5731 5731 5730 5729 5728 5727 5727 5725 5724 5723 5723 5722 5721 5720 5719 5718 5717 5716 5715 5713 5712 5711 5710 5708 5707
5737 5737 5738 5738 5739 5740 5740 5741 5741 5742 5742 5742 5742 5743 5743 5743 5744 5744 5744 5744 5744 5744 5744 5743 5743 5743 5742 5742 5741 5741 5740 5739 5738 5738 5737 5736 5736 5735 5734 5733 5732 5731 5731 5730 5729 5728 5728 5727 5726 5725 5724 5723 5722 5722 5721 5720 5719 5718 5717 5716 5715 5713 5712 5711 5710 5708 5707 5706 5704
5735 5735 5736 5736 5737 5738 5738 5739 5739 5740 5740 5740 5741 5741 5741 5741 5742 5742 5742 5742 5741 5741 5741 5741 5741 5740 5740 5739 5739 5738 5738 5737 5736 5736 5735 5734 5733 5732 5732 5731 5730 5730 5729 5728 5727 5726 5726 5725 5724 5723 5722 5722 5721 5720 5719 5718 5717 5716 5715 5714 5713 5712 5710 5709 5708 5706 5705 5703 5702
5733 5733 5734 5734 5735 5736 5736 5737 5737 5737 5738 5738 5738 5739 5739 5739 5739 5739 5739 5739 5739 5739 5739 5738 5738 5738 5737 5737 5737 5736 5736 5735 5734 5733 5733 5732 5731 5731 5730 5729 5728 5727 5727 5726 5725 5724 5724 5723 5722 5722 5721 5720 5719 5718 5717 5716 5715 5714 5713 5712 5711 5710 5708 5707 5706 5704 5702 5701 5700
5731 5732 5732 5733 5733 5734 5734 5735 5735 5736 5736 5736 5737 5737 5737 5737 5737 5737 5737 5737 5737 5737 5736 5736 5736 5736 5735 5735 5734 5734 5733 5733 5732 5732 5731 5730 5729 5728 5727 5727 5726 5726 5725 5724 5723 5722 5722 5721 5721 5720 5719 5718 5717 5716 5715 5714 5713 5712 5711 5710 5709 5707 5706 5705 5703 5702 5700 5699 5697
5729 5730 5730 5731 5732 5732 5732 5733 5733 5733 5734 5734 5734 5735 5735 5735 5735 5735 5734 5734 5734 5734 5734 5734 5733 5733 5733 5732 5732 5732 5731 5730 5730 5729 5729 5728 5727 5726 5725 5725 5724 5723 5723 5722 5722 5721 5720 5720 5719 5718 5717 5716 5715 5714 5713 5712 5711 5710 5709 5708 5707 5705 5704 5702 5701 5700 5698 5697 5695
5727 5728 5728 5729 5730 5730 5730 5731 5731 5732 5732 5732 5732 5732 5732 5732 5732 5732 5732 5732 5732 5732 5732 5731 5731 5731 5731 5730 5730 5729 5729 5728 5727 5727 5726 5726 5725 5724 5723 5723 5722 5722 5721 5720 5720 5719 5719 5718 5717 5716 5716 5715 5713 5712 5711 5710 5709 5708 5707 5706 5704 5703 5702 5700 5699 5697 5696 5694 5693
5726 5726 5727 5727 5727 5728 5728 5729 5729 5729 5730 5730 5730 5730 5730 5730 5730 5730 5730 5730 5729 5729 5729 5729 5729 5728 5728 5728 5727 5727 5727 5726 5725 5725 5724 5723 5723 5722 5722 5721 5721 5720 5719 5719 5718 5717 5717 5716 5715 5714 5713 5712 5712 5710 5709 5708 5707 5706 5705 5703 5702 5701 5699 5698 5696 5695 5693 5692 5690
5723 5724 5724 5725 5725 5726 5726 5727 5727 5727 5727 5727 5727 5728 5728 5728 5728 5727 5727 5727 5727 5727 5727 5727 5726 5726 5726 5725 5725 5725 5724 5723 5723 5722 5722 5722 5721 5721 5720 5719 5719 5718 5717 5717 5716 5716 5715 5714 5713 5712 5711 5710 5709 5708 5707 5706 5705 5704 5702 5701 5700 5698 5697 5696 5694 5693 5691 5690 5688
5721 5722 5722 5723 5723 5724 5724 5724 5725 5725 5725 5725 5726 5726 5726 5726 5726 5725 5725 5725 5725 5725 5725 5724 5724 5724 5723 5723 5723 5722 5722 5722 5721 5721 5720 5720 5719 5719 5718 5717 5717 5716 5716 5715 5714 5713 5712 5712 5711 5710 5709 5708 5707 5706 5705 5704 5703 5702 5700 5699 5698 5696 5695 5693 5692 5691 5689 5687 5686
5719 5720 5720 5721 5721 5722 5722 5722 5722 5723 5723 5723 5723 5723 5723 5723 5723 5723 5723 5723 5722 5722 5722 5722 5722 5722 5722 5721 5721 5720 5720 5720 5719 5719 5718 5718 5717 5717 5716 5716 5715 5714 5714 5713 5712 5712 5711 5710 5709 5708 5707 5706 5705 5704 5703 5702 5701 5699 5698 5697 5696 5694 5693 5691 5690 5688 5687 5685 5683
5717 5717 5718 5718 5719 5719 5720 5720 5721 5721 5721 5721 5721 5721 5721 5721 5721 5721 5721 5720 5720 5720 5720 5720 5720 5720 5719 5719 5719 5718 5718 5718 5717 5717 5717 5716 5716 5715 5714 5714 5713 5712 5712 5711 5710 5709 5709 5708 5707 5706 5705 5704 5703 5702 5701 5700 5699 5697 5696 5695 5693 5692 5691 5689 5687 5686 5684 5682 5681
5715 5715 5716 5717 5717 5717 5718 5718 5718 5719 5719 5719 5719 5719 5719 5719 5719 5718 5718 5718 5718 5718 5718 5718 5718 5718 5717 5717 5717 5717 5716 5716 5716 5715 5715 5714 5714 5713 5712 5712 5711 5710 5710 5709 5708 5707 5707 5706 5705 5704 5703 5702 5701 5700 5699 5698 5697 5696 5694 5693 5691 5690 5688 5687 5685 5683 5682 5680 5678
5712 5713 5714 5714 5715 5715 5716 5716 5716 5717 5717 5717 5717 5717 5717 5717 5717 5716 5716 5716 5717 5717 5716 5716 5716 5716 5716 5715 5715 5715 5714 5714 5714 5713 5713 5712 5712 5711 5711 5710 5709 5709 5708 5707 5707 5706 5705 5704 5703 5702 5701 5700 5699 5698 5697 5696 5695 5693 5692 5691 5689 5687 5686 5684 5682 5681 5679 5677 5676
5711 5711 5712 5712 5713 5713 5714 5714 5714 5714 5714 5714 5714 5714 5714 5714 5714 5714 5714 5714 5714 5714 5714 5714 5714 5714 5714 5713 5713 5713 5712 5712 5712 5712 5711 5710 5710 5709 5709 5708 5707 5707 5706 5706 5705 5704 5703 5702 5701 5700 5699 5698 5697 5696 5695 5694 5692 5691 5690 5688 5687 5685 5684 5682 5680 5678 5677 5675 5673
5708 5709 5710 5710 5711 5711 5712 5712 5712 5712 5712 5712 5712 5712 5712 5712 5712 5712 5712 5712 5712 5713 5712 5712 5712 5712 5712 5712 5711 5711 5711 5710 5710 5710 5709 5709 5708 5708 5707 5707 5706 5705 5704 5704 5703 5702 5701 5700 5699 5698 5697 5696 5695 5694 5693 5692 5690 5689 5687 5686 5684 5683 5681 5679 5678 5676 5674 5672 5670
5707 5707 5707 5708 5709 5709 5709 5710 5710 5710 5710 5710 5710 5710 5710 5710 5710 5711 5711 5711 5711 5711 5711 5711 5710 5710 5710 5709 5709 5709 5709 5708 5708 5708 5707 5707 5707 5706 5706 5705 5704 5703 5703 5702 5701 5700 5699 5698 5697 5696 5695 5694 5693 5692 5691 5689 5688 5687 5685 5683 5682 5680 5678 5677 5675 5673 5671 5669 5667
5704 5705 5706 5706 5707 5707 5707 5707 5708 5708 5708 5708 5708 5708 5708 5708 5709 5709 5709 5709 5709 5709 5709 5709 5708 5708 5708 5707 5707 5707 5707 5707 5707 5706 5706 5706 5705 5704 5704 5703 5702 5702 5701 5700 5699 5698 5697 5697 5696 5694 5693 5692 5691 5690 5688 5687 5686 5684 5682 5681 5679 5678 5676 5674 5672 5670 5668 5667 5664
5702 5703 5703 5704 5704 5705 5705 5705 5706 5706 5706 5706 5706 5706 5707 5707 5707 5707 5707 5707 5707 5707 5707 5707 5707 5706 5706 5706 5706 5705 5705 5705 5705 5705 5704 5704 5703 5703 5702 5701 5701 5700 5699 5699 5698 5697 5696 5695 5693 5692 5691 5690 5689 5687 5686 5685 5683 5682 5680 5678 5677 5675 5673 5672 5669 5667 5666 5664 5662
5700 5701 5702 5702 5702 5703 5703 5703 5703 5703 5704 5704 5704 5704 5705 5705 5705 5705 5705 5705 5705 5705 5705 5705 5705 5704 5704 5704 5704 5704 5704 5704 5703 5703 5703 5702 5702 5701 5700 5700 5699 5698 5697 5697 5696 5695 5694 5692 5692 5690 5689 5688 5687 5685 5684 5682 5681 5679 5677 5676 5674 5672 5671 5669 5667 5665 5663 5661 5659
5698 5699 5699 5700 5700 5701 5701 5701 5701 5702 5702 5702 5702 5703 5703 5703 5703 5703 5703 5703 5703 5703 5703 5703 5703 5702 5702 5702 5702 5702 5702 5702 5702 5701 5701 5700 5700 5699 5699 5698 5697 5697 5696 5695 5694 5693 5692 5691 5689 5688 5687 5686 5684 5683 5681 5680 5678 5677 5675 5673 5672 5670 5668 5666 5664 5662 5660 5658 5656
5696 5697 5697 5698 5698 5698 5698 5699 5699 5700 5700 5700 5701 5701 5701 5702 5702 5702 5702 5702 5702 5701 5701 5701 5701 5701 5701 5701 5701 5701 5700 5700 5700 5700 5699 5699 5698 5698 5697 5696 5696 5695 5694 5693 5692 5691 5690 5688 5687 5686 5685 5683 5682 5680 5679 5677 5676 5674 5672 5671 5669 5667 5665 5663 5661 5659 5657 5655 5653
5694 5695 5695 5696 5696 5696 5697 5697 5697 5698 5698 5699 5699 5699 5700 5700 5700 5700 5700 5700 5700 5699 5699 5699 5699 5699 5699 5699 5699 5699 5699 5698 5698 5698 5698 5697 5697 5696 5695 5695 5694 5693 5692 5691 5690 5689 5687 5686 5685 5684 5682 5681 5680 5678 5677 5675 5673 5672 5670 5668 5667 5665 5663 5661 5659 5657 5655 5652 5650
5692 5692 5693 5693 5694 5694 5695 5695 5696 5696 5697 5697 5697 5697 5698 5698 5698 5698 5698 5698 5698 5698 5697 5697 5698 5698 5697 5697 5697 5697 5697 5697 5697 5697 5696 5696 5695 5694 5694 5693 5692 5691 5690 5689 5688 5687 5685 5684 5683 5682 5680 5679 5677 5676 5674 5672 5671 5669 5667 5666 5664 5662 5660 5658 5656 5654 5652 5650 5647
5690 5691 5691 5692 5692 5692 5693 5693 5694 5694 5695 5695 5696 5696 5696 5696 5696 5696 5696 5696 5696 5696 5696 5696 5696 5696 5696 5696 5696 5696 5696 5696 5696 5695 5695 5694 5693 5693 5692 5691 5690 5689 5688 5687 5686 5685 5683 5682 5681 5679 5678 5677 5675 5673 5672 5670 5668 5667 5665 5663 5662 5660 5658 5656 5654 5652 5649 5647 5645
5688 5689 5689 5690 5690 5691 5692 5692 5692 5693 5693 5693 5694 5694 5694 5694 5694 5694 5694 5694 5694 5694 5695 5695 5695 5695 5695 5695 5695 5695 5694 5694 5694 5693 5693 5692 5692 5691 5690 5689 5688 5687 5686 5685 5684 5682 5681 5680 5679 5677 5676 5674 5672 5671 5669 5668 5666 5664 5662 5661 5659 5657 5655 5653 5651 5649 5647 5644 5642
5686 5687 5687 5688 5689 5689 5690 5690 5691 5691 5692 5692 5692 5692 5692 5692 5692 5692 5692 5693 5693 5693 5693 5693 5693 5693 5693 5693 5693 5693 5693 5692 5692 5692 5691 5690 5689 5689 5688 5687 5686 5685 5684 5682 5682 5680 5679 5678 5677 5675 5673 5672 5670 5669 5667 5665 5664 5662 5660 5658 5657 5654 5652 5651 5648 5646 5644 5641 5638
5685 5685 5686 5687 5687 5688 5688 5689 5689 5689 5690 5690 5690 5690 5691 5691 5691 5691 5691 5691 5691 5691 5692 5692 5692 5692 5692 5692 5692 5692 5691 5691 5690 5690 5689 5688 5687 5687 5686 5685 5684 5683 5682 5681 5679 5678 5677 5676 5674 5673 5671 5670 5668 5666 5665 5663 5661 5659 5658 5656 5654 5652 5650 5648 5646 5643 5641 5638 5636
5683 5684 5684 5685 5686 5686 5687 5687 5687 5688 5688 5688 5688 5689 5689 5689 5689 5689 5689 5690 5690 5690 5690 5690 5690 5691 5691 5690 5690 5690 5690 5689 5688 5688 5687 5686 5685 5685 5684 5683 5682 5681 5679 5678 5677 5676 5675 5673 5672 5670 5669 5667 5666 5664 5662 5661 5659 5657 5655 5653 5652 5649 5647 5645 5643 5640 5638 5635 5633
5682 5682 5683 5684 5684 5685 5685 5686 5686 5686 5686 5687 5687 5687 5687 5687 5688 5688 5688 5688 5688 5689 5689 5689 5689 5689 5689 5689 5689 5688 5687 5687 5687 5686 5685 5684 5683 5682 5682 5681 5679 5678 5677 5676 5675 5674 5672 5671 5670 5668 5667 5665 5663 5662 5660 5658 5657 5655 5653 5651 5649 5647 5645 5643 5640 5638 5635 5632 5630
5680 5681 5682 5682 5682 5683 5683 5684 5684 5684 5685 5685 5685 5686 5686 5686 5686 5686 5687 5687 5687 5687 5687 5688 5688 5688 5687 5687 5687 5686 5686 5685 5684 5684 5683 5682 5681 5681 5680 5678 5677 5676 5675 5674 5672 5671 5670 5669 5667 5666 5664 5662 5661 5659 5658 5656 5654 5652 5651 5648 5647 5644 5642 5640 5638 5635 5632 5630 5627
5679 5679 5680 5681 5681 5681 5682 5682 5682 5683 5683 5683 5684 5684 5684 5684 5685 5685 5685 5685 5686 5686 5686 5686 5686 5686 5686 5686 5685 5684 5684 5683 5682 5682 5681 5680 5679 5678 5677 5676 5675 5674 5673 5672 5670 5669 5668 5667 5665 5663 5662 5660 5659 5657 5655 5654 5652 5650 5648 5646 5644 5642 5639 5637 5635 5632 5629 5627 5624
5677 5678 5678 5679 5679 5680 5680 5681 5681 5681 5682 5682 5682 5682 5682 5683 5683 5683 5683 5684 5684 5684 5685 5685 5685 5684 5684 5684 5683 5683 5682 5681 5681 5680 5679 5678 5677 5676 5675 5674 5673 5672 5671 5669 5668 5667 5666 5664 5663 5662 5660 5658 5657 5655 5653 5651 5649 5647 5646 5643 5641 5639 5637 5634 5632 5629 5627 5623 5620
5675 5676 5677 5677 5677 5678 5678 5679 5679 5680 5680 5680 5681 5681 5681 5681 5682 5682 5682 5682 5683 5683 5683 5683 5683 5682 5682 5682 5682 5681 5680 5680 5679 5678 5677 5676 5675 5674 5673 5672 5671 5669 5668 5667 5666 5665 5663 5662 5661 5659 5658 5656 5654 5652 5651 5649 5647 5645 5643 5641 5639 5636 5634 5631 5629 5626 5623 5621 5617